Flag for Switzerland Weather past 2 weeks in Bellinzona, Ticino, Switzerland

Now
52 °F

Cool.


Feels Like: 52 °F
Forecast: 32 / 54 °F
Wind: 2 mph from West

Location: Locarno-Magadino

Current Time: Mar 3, 2015 at 8:04:50 PM

Latest Report: Mar 3, 2015 at 7:00 PM


Visibility: N/A

Pressure: 30.18 "Hg

Humidity: 42%

Dew point: 30 °F

Location of BellinzonaLocation

Historic Weather in Bellinzona — Graph

°F

Bellinzona temperature yesterday

Maximum temperature yesterday: 55 °F (at 4:00 PM)
Minimum temperature yesterday: 36 °F (at 3:00 AM)
Average temperature yesterday: 44 °F

Past Weeks' High & Low Weather Summary

 TemperatureHumidityPressure
High61 °F (Mar 3, 4:00 PM)100% (Feb 19, 3:00 AM)30.66 "Hg (Feb 19, 3:00 AM)
Low26 °F (Feb 20, 7:00 AM)19% (Feb 25, 4:00 PM)29.59 "Hg (Feb 22, 3:00 PM)
Average41 °F68%30.05 "Hg
* Reported Feb 16 6:00 PM — Mar 3 6:00 PM, Bellinzona, Weather by CustomWeather, © 2015

Note: Actual official high and low records may vary slightly from our data, if they occured in-between our weather recording intervals... More about our weather records

Advertising

Bellinzona weather history for previous 24 hours

 ConditionsComfort  
Time TempWeatherWind HumidityBarometerVisibility
6:00 PM
Tue, Mar 3
54 °FCool.3 mph33%30.15 "HgN/A
5:00 PM58 °FRefreshingly cool.12 mph30%30.12 "HgN/A
4:00 PM61 °FRefreshingly cool.5 mph21%30.12 "HgN/A
3:00 PM59 °FRefreshingly cool.3 mph20%30.13 "HgN/A
2:00 PM60 °FRefreshingly cool.3 mph23%30.14 "HgN/A
1:00 PM59 °FRefreshingly cool.10 mph23%30.15 "HgN/A
12:00 PM57 °FRefreshingly cool.12 mph22%30.17 "HgN/A
11:00 AM52 °FCool.12 mph30%30.18 "HgN/A
10:00 AM51 °FCool.12 mph38%30.17 "HgN/A
9:00 AM47 °FCool.7 mph43%30.17 "HgN/A
8:00 AM45 °FQuite cool.10 mph42%30.15 "HgN/A
7:00 AM37 °FChilly.7 mph66%30.14 "HgN/A
6:00 AM44 °FQuite cool.7 mph45%30.11 "HgN/A
5:00 AM42 °FQuite cool.3 mph54%30.09 "HgN/A
4:00 AM40 °FChilly.2 mph62%30.08 "HgN/A
3:00 AM38 °FChilly.2 mph74%30.09 "HgN/A
2:00 AM45 °FCool.2 mph54%30.08 "HgN/A
1:00 AM40 °FChilly.2 mph74%30.08 "HgN/A
12:00 AM42 °FQuite cool.2 mph70%30.08 "HgN/A
11:00 PM
Mon, Mar 2
42 °FQuite cool.1 mph69%30.06 "HgN/A
9:00 PM42 °FQuite cool.5 mph75%30.00 "HgN/A
8:00 PM50 °FCool.8 mph50%29.96 "HgN/A
Weather by CustomWeather, © 2015

See weather overviewHow to use our weather pages